Regional Weather Roundup
Issued by NWS

Home | Current Version | Previous Version | Graphics & Text | Print | Product List | Glossary On
Versions: 1 2 3 4 5 6 7 8 9 10 11 12 13 14 15 16 17 18 19 20 21 22 23 24 25 26 27 28 29 30 31 32 33 34 35 36 37 38 39 40 41 42 43 44 45 46 47 48 49 50
187
ASUS43 KLMK 241610
RWRKY
KENTUCKY REGIONAL WEATHER ROUNDUP
NATIONAL WEATHER SERVICE LOUISVILLE KY
1200 PM EDT SAT SEP 24 2016

NOTE "FAIR" INDICATES FEW OR NO CLOUDS BELOW 12,000 FEET
WITH NO SIGNIFICANT WEATHER AND/OR OBSTRUCTIONS TO VISIBILITY.

KYZ001>023-026-027-061>063-070>075-241700-
WESTERN AND SOUTH CENTRAL KENTUCKY

CITY           SKY/WX    TMP DP  RH WIND       PRES   REMARKS
PADUCAH        SUNNY     87  66  49 S3        30.11S
HENDERSON      SUNNY     86  64  48 NW3       30.11F
OWENSBORO      SUNNY    N/A N/A N/A VRB5      30.13S
HOPKINSVILLE   SUNNY     86  66  51 S3        30.13S
BOWLING GREEN  SUNNY     86  66  51 E3        30.15S
GLASGOW        SUNNY     84  66  54 CALM      30.15S
$$

KYZ024-025-028>034-038-045-046-053-241700-
NORTH CENTRAL KENTUCKY

CITY           SKY/WX    TMP DP  RH WIND       PRES   REMARKS
LOUISVILLE/SDF MOSUNNY   86  65  49 W3        30.14S
LOUISVILLE/LOU SUNNY     84  66  54 CALM      30.15S
FORT KNOX      SUNNY     84  67  56 NW5       30.14S
$$

KYZ035>037-039>044-047>052-055>060-089>105-241700-
NORTHEAST KENTUCKY

CITY           SKY/WX    TMP DP  RH WIND       PRES   REMARKS
LEXINGTON      SUNNY     86  64  47 W6        30.16S
COVINGTON      SUNNY     79  68  69 NE7       30.17R
FRANKFORT      SUNNY     86  66  51 VRB3      30.14S
$$

KYZ054-064>069-076>088-106>120-241700-
SOUTHEAST KENTUCKY

CITY           SKY/WX    TMP DP  RH WIND       PRES   REMARKS
JACKSON        SUNNY     82  66  58 CALM      30.17S
LONDON         SUNNY     83  63  50 CALM      30.17S
SOMERSET       SUNNY     82  63  51 E3        30.17S
MIDDLESBORO    SUNNY     78  67  68 CALM      30.17S
MONTICELLO     SUNNY     84  65  52 VRB6      30.17F
$$





USA.gov is the U.S. government's official web portal to all federal, state and local government web resources and services.